OneWeb SL0210

operational
NORAD ID: 48787 Int'l Des: 2021-045 Owner: ONEWEBN Country: UK Constellation: oneweb
LEOCIRCULARPOLARONEWEB_TYPE

Über OneWeb SL0210

Beschreibung wird geladen...

Live-Position

3D-Globus wird geladen...

Nächste Überflüge

Höhenverlauf

Altitude vs Time

uPlot chart will show altitude changes over time

Zweizeiliger Elementsatz

1 48787U 21045W 25258.58511392 -.00000032 00000-0 -11874-3 0 9993
2 48787 87.9035 313.9655 0001351 80.6399 279.4884 13.15548884208217
Epoch: 15. Sept. 2025 • Age: 12 hours

Aktueller Status

Höhe 1214.5 km
Geschwindigkeit 7.25 km/s
Subsatellitenpunkt -32.12°S, 108.86°E
Startdatum 28. Mai 2021
Alter 4.3 years
Typ internet

Technische Details

Klassifizierung Payload
Masse 148.00 kg
Trockenmasse 140.00 kg
Gesamtmasse 148.00 kg
Länge 1.30 m
Durchmesser 1.00 m
Spannweite 5.00 m
Form Trapezoid+2 pan
Hersteller ONEWUS
Bus-Typ ARROW
Phasenstatus In Orbit
Besitzer/Staat ONEWEBN/UK

Große Konstellationen

Loading constellations...